Total_Precipitation_Accumulation
0.65 0.62 0.60 0.62 0.67 0.74 0.80 0.93 1.07 1.27 1.37 1.41 1.52 1.73 1.88 2.01 2.10 2.14 1.99 1.86 1.82 1.95 2.09 2.00 2.07 2.07 1.94 1.92 1.98 2.03 1.99 1.81 1.66 1.71 1.60 1.35 1.17 1.25 1.22 1.24 1.30 1.31 1.39
0.49 0.45 0.40 0.44 0.47 0.48 0.54 0.66 0.83 0.94 1.09 1.29 1.57 1.79 2.04 2.07 2.13 2.18 2.19 2.10 2.03 2.16 2.18 2.25 2.35 2.36 2.36 2.30 2.18 2.30 2.46 2.19 1.95 2.07 2.36 1.97 1.62 1.27 1.05 1.16 1.26 1.32 1.56
0.33 0.27 0.27 0.34 0.41 0.40 0.43 0.54 0.68 0.84 1.08 1.33 1.70 1.99 2.27 2.37 2.43 2.38 2.40 2.38 2.36 2.38 2.40 2.44 2.50 2.50 2.37 2.36 2.47 2.61 2.95 2.75 2.37 2.17 2.47 2.32 2.02 1.71 1.27 1.15 1.25 1.35 1.50
0.32 0.30 0.28 0.28 0.32 0.36 0.44 0.58 0.79 1.02 1.32 1.64 2.00 2.28 2.57 2.73 2.57 2.56 2.56 2.51 2.39 2.37 2.45 2.43 2.40 2.37 2.32 2.39 2.46 2.52 2.95 3.17 2.88 2.52 2.10 1.88 1.86 1.99 1.73 1.29 1.25 1.35 1.37
0.38 0.36 0.37 0.38 0.42 0.49 0.59 0.78 1.06 1.37 1.68 1.95 2.13 2.39 2.52 2.54 2.50 2.44 2.43 2.34 2.30 2.26 2.27 2.24 2.32 2.32 2.34 2.41 2.58 2.71 2.99 3.05 3.06 2.87 2.62 2.38 2.07 1.75 1.85 1.82 1.54 1.47 1.37
0.41 0.41 0.46 0.54 0.62 0.70 0.87 1.06 1.24 1.55 1.74 1.91 2.05 2.21 2.35 2.39 2.36 2.35 2.39 2.37 2.32 2.22 2.15 2.10 2.14 2.25 2.37 2.41 2.51 2.68 2.96 3.10 3.21 3.10 2.80 2.70 2.54 2.27 2.17 1.93 1.79 1.76 1.51
0.47 0.49 0.62 0.78 0.85 0.90 1.03 1.21 1.29 1.50 1.62 1.69 1.82 1.96 2.00 2.02 2.04 2.04 2.05 1.97 1.91 1.89 1.95 2.02 2.10 2.22 2.29 2.34 2.47 2.60 2.67 2.83 3.09 3.11 2.93 2.70 2.52 2.51 2.39 2.29 2.00 1.80 1.55
0.65 0.76 0.91 1.00 1.08 1.11 1.11 1.17 1.32 1.36 1.38 1.46 1.47 1.55 1.62 1.67 1.73 1.71 1.71 1.76 1.79 1.81 1.74 1.78 1.86 2.07 2.24 2.32 2.41 2.43 2.42 2.50 2.70 2.70 2.78 2.74 2.49 2.45 2.37 2.38 2.52 2.22 1.94
0.91 1.16 1.36 1.46 1.53 1.47 1.31 1.18 1.21 1.22 1.21 1.31 1.36 1.40 1.46 1.49 1.51 1.53 1.45 1.56 1.58 1.58 1.53 1.57 1.60 1.72 1.92 2.16 2.31 2.28 2.21 2.19 2.36 2.42 2.52 2.66 2.70 2.59 2.50 2.50 2.64 2.64 2.36
1.35 1.64 1.91 2.09 2.06 1.85 1.60 1.37 1.20 1.13 1.11 1.17 1.27 1.35 1.38 1.38 1.34 1.38 1.29 1.32 1.41 1.41 1.34 1.36 1.48 1.64 1.73 1.89 2.09 2.17 2.12 2.13 2.23 2.35 2.47 2.62 2.76 2.78 2.57 2.54 2.57 2.48 2.45
1.81 1.99 2.17 2.30 2.10 1.91 1.64 1.37 1.19 1.18 1.21 1.25 1.31 1.33 1.29 1.27 1.24 1.19 1.14 1.18 1.25 1.25 1.24 1.38 1.47 1.55 1.64 1.81 2.05 2.19 2.19 2.12 2.13 2.13 2.23 2.43 2.56 2.79 2.73 2.63 2.57 2.47 2.38
1.56 1.67 1.77 1.79 1.83 1.79 1.61 1.42 1.28 1.27 1.31 1.37 1.41 1.35 1.29 1.25 1.21 1.17 1.09 1.07 1.02 1.00 1.11 1.25 1.29 1.34 1.37 1.56 1.86 2.05 2.10 2.08 1.97 1.92 2.02 2.27 2.48 2.70 2.81 2.76 2.64 2.57 2.45
1.34 1.34 1.39 1.49 1.59 1.61 1.52 1.50 1.45 1.46 1.47 1.44 1.33 1.27 1.21 1.14 1.10 1.01 0.97 0.99 0.98 1.04 1.13 1.19 1.22 1.26 1.32 1.36 1.50 1.69 1.83 1.83 1.78 1.78 1.79 1.81 2.01 2.32 2.53 2.57 2.64 2.66 2.62
1.06 1.06 1.15 1.26 1.35 1.37 1.40 1.38 1.36 1.40 1.52 1.60 1.50 1.37 1.26 1.17 1.13 1.04 0.96 0.93 0.96 1.06 1.13 1.15 1.21 1.29 1.33 1.34 1.38 1.41 1.47 1.52 1.61 1.65 1.64 1.67 1.72 1.95 2.16 2.26 2.44 2.68 2.71
0.77 0.80 0.85 0.87 0.85 0.84 0.93 0.99 1.09 1.23 1.40 1.56 1.57 1.46 1.28 1.15 1.09 1.04 0.97 0.94 0.94 0.97 1.05 1.10 1.11 1.15 1.24 1.35 1.41 1.30 1.27 1.36 1.45 1.43 1.37 1.39 1.57 1.79 1.93 1.90 2.18 2.53 2.74
0.54 0.52 0.52 0.52 0.50 0.48 0.49 0.53 0.64 0.82 1.07 1.35 1.38 1.23 1.09 0.94 0.87 0.89 0.92 0.93 0.91 0.95 0.98 0.94 0.95 1.03 1.06 1.34 1.37 1.22 1.14 1.19 1.29 1.37 1.36 1.24 1.26 1.38 1.51 1.57 1.70 1.96 2.19
0.40 0.40 0.39 0.38 0.37 0.36 0.36 0.40 0.49 0.63 0.82 0.95 0.98 0.91 0.84 0.83 0.88 0.91 0.87 0.88 0.91 0.92 0.94 0.91 0.90 0.92 1.05 1.19 1.10 1.14 1.07 1.10 1.17 1.26 1.36 1.27 1.17 1.32 1.34 1.47 1.56 1.52 1.59
0.30 0.28 0.29 0.31 0.36 0.36 0.40 0.44 0.51 0.56 0.62 0.66 0.70 0.69 0.69 0.72 0.80 0.84 0.82 0.89 0.93 0.89 0.91 0.96 0.96 0.95 1.02 1.07 0.99 1.09 1.03 1.01 1.06 1.19 1.30 1.35 1.29 1.35 1.48 1.43 1.43 1.36 1.35
0.22 0.20 0.20 0.21 0.25 0.26 0.28 0.29 0.31 0.33 0.36 0.36 0.39 0.44 0.49 0.52 0.55 0.58 0.67 0.80 0.88 0.90 0.95 1.00 1.00 0.92 0.93 1.04 1.00 1.05 1.01 1.00 1.02 1.04 1.13 1.23 1.19 1.45 1.60 1.47 1.57 1.57 1.45
0.22 0.21 0.18 0.18 0.20 0.22 0.25 0.24 0.24 0.25 0.25 0.25 0.27 0.31 0.35 0.38 0.41 0.47 0.54 0.62 0.66 0.74 0.87 0.91 0.92 0.93 0.92 1.17 1.12 1.11 1.00 1.02 1.09 1.10 1.07 1.26 1.29 1.48 1.49 1.33 1.52 1.58 1.54
0.20 0.22 0.21 0.20 0.20 0.24 0.26 0.25 0.25 0.27 0.30 0.31 0.32 0.33 0.33 0.35 0.40 0.45 0.49 0.54 0.59 0.69 0.76 0.80 0.84 0.92 1.03 1.24 1.28 1.30 1.15 1.13 1.23 1.20 1.09 1.03 1.25 1.17 1.27 1.28 1.25 1.52 1.59
0.18 0.20 0.21 0.23 0.24 0.24 0.25 0.26 0.26 0.28 0.32 0.34 0.35 0.36 0.36 0.39 0.42 0.47 0.52 0.56 0.61 0.64 0.68 0.72 0.76 0.81 0.90 1.02 1.13 1.17 1.18 1.20 1.20 1.22 1.11 1.11 1.27 1.11 1.09 1.07 1.16 1.41 1.54
0.16 0.17 0.20 0.19 0.20 0.22 0.22 0.23 0.27 0.29 0.31 0.33 0.34 0.38 0.39 0.40 0.41 0.46 0.52 0.57 0.60 0.62 0.65 0.69 0.76 0.79 0.83 0.90 0.97 0.97 1.03 1.11 1.11 1.09 1.18 1.22 1.21 1.10 0.99 0.99 1.09 1.18 1.26
0.16 0.15 0.19 0.21 0.21 0.22 0.23 0.26 0.28 0.27 0.28 0.34 0.37 0.38 0.39 0.41 0.43 0.47 0.51 0.55 0.59 0.62 0.66 0.71 0.76 0.78 0.81 0.84 0.86 0.94 1.01 0.99 0.99 1.00 1.01 1.03 1.06 1.04 0.95 0.96 1.02 1.10 1.21
0.19 0.21 0.23 0.24 0.24 0.25 0.27 0.31 0.34 0.31 0.29 0.32 0.35 0.35 0.37 0.41 0.44 0.47 0.49 0.51 0.56 0.66 0.75 0.77 0.80 0.77 0.73 0.76 0.83 0.92 1.01 1.10 1.18 1.24 1.14 1.12 1.11 1.08 1.01 0.99 1.00 1.08 1.18
0.25 0.26 0.26 0.27 0.28 0.27 0.30 0.33 0.37 0.39 0.38 0.37 0.35 0.34 0.36 0.40 0.43 0.45 0.46 0.50 0.53 0.63 0.68 0.69 0.69 0.68 0.70 0.75 0.76 0.80 0.91 1.04 1.22 1.34 1.29 1.34 1.35 1.30 1.24 1.18 1.12 1.07 1.09